Tracking 18794 objects as of 22-September-2017
HD Live streaming from Space Station
objects crossing your sky now

NAVSTAR 68 (USA 242)

Track NAVSTAR 68 (USA 242) now!
NAVSTAR 68 (USA 242) is classified as:


NORAD ID: 39166
Int'l Code: 2013-023A
Perigee: 20,060.5 km
Apogee: 20,318.1 km
Inclination: 55.9 °
Period: 718.0 minutes
Semi major axis: 26560 km
RCS: 0.2666 m2 (medium)
Launch date: May 15, 2013
Source: United States (US)
Launch site: AIR FORCE EASTERN TEST RANGE (AFETR)
PRN: 27

NAVSTAR 68 (USA 242) will become the fourth member with the latest enhancements to increase accuracy and security to populate the network since 2010.
aabbcc
Your satellite tracking list
Your tracking list is empty





NASA's NSSDC Master Catalog

Two Line Element Set (TLE):
1 39166U 13023A   17264.27291384 -.00000083  00000-0  00000+0 0  9991
2 39166  55.9131  36.3776 0048479  20.1320 340.0512  2.00564230 31879
Source of the keplerian elements: AFSPC